• Em Portugal
  • Lista de países
  • Para 7 dias
  • Temperatura da água
  • Mapas de satélite
  • Mapa do tempo
  • Widgets de tempo
  • user-avatar
    Iniciar Sessão

    Previsão horária em Sucre

    Hoje, 20 Setembro, Quinta-feira

    Tempo Temperatura Precipitação Vento Pressão Humidade
    00:00 +15°C° 0 mm 1 m/s 541 mmHg 64%
    01:00 +15°C° 0 mm 1 m/s 541 mmHg 68%
    02:00 +14°C° 0 mm 1 m/s 540 mmHg 72%
    03:00 +14°C° 0 mm 1 m/s 540 mmHg 75%
    04:00 +13°C° 0 mm 1 m/s 540 mmHg 78%
    05:00 +13°C° 0 mm 1 m/s 539 mmHg 81%
    06:00 +13°C° 0 mm 1 m/s 540 mmHg 77%
    07:00 +14°C° 0 mm 1 m/s 541 mmHg 72%
    08:00 +15°C° 0 mm 2 m/s 541 mmHg 68%
    09:00 +17°C° 0 mm 2 m/s 542 mmHg 57%
    10:00 +18°C° 0 mm 2 m/s 543 mmHg 47%
    11:00 +20°C° 0 mm 3 m/s 544 mmHg 37%
    12:00 +21°C° 0 mm 3 m/s 543 mmHg 32%
    13:00 +23°C° 0 mm 4 m/s 543 mmHg 28%
    14:00 +25°C° 0 mm 4 m/s 543 mmHg 24%
    15:00 +23°C° 0 mm 5 m/s 543 mmHg 27%
    16:00 +23°C° 0 mm 6 m/s 542 mmHg 30%
    17:00 +22°C° 0 mm 8 m/s 542 mmHg 33%
    18:00 +20°C° 0.2 mm 6 m/s 542 mmHg 43%
    19:00 +19°C° 0.2 mm 4 m/s 542 mmHg 53%
    20:00 +17°C° 0.2 mm 3 m/s 541 mmHg 63%
    21:00 +17°C° 0.1 mm 3 m/s 542 mmHg 66%
    22:00 +16°C° 0.1 mm 2 m/s 542 mmHg 70%
    23:00 +16°C° 0.1 mm 2 m/s 542 mmHg 73%

    Amanhã, 21 Setembro, Sexta-feira

    Tempo Temperatura Precipitação Vento Pressão Humidade
    00:00 +15°C° 0 mm 2 m/s 541 mmHg 75%
    01:00 +15°C° 0 mm 2 m/s 541 mmHg 77%
    02:00 +14°C° 0 mm 1 m/s 540 mmHg 79%
    03:00 +14°C° 0 mm 1 m/s 540 mmHg 81%
    04:00 +13°C° 0 mm 1 m/s 540 mmHg 82%
    05:00 +13°C° 0 mm 1 m/s 539 mmHg 84%
    06:00 +14°C° 0 mm 1 m/s 540 mmHg 78%
    07:00 +14°C° 0 mm 1 m/s 541 mmHg 71%
    08:00 +15°C° 0 mm 1 m/s 542 mmHg 65%
    09:00 +18°C° 0 mm 1 m/s 542 mmHg 56%
    10:00 +18°C° 0 mm 2 m/s 543 mmHg 48%
    11:00 +20°C° 0 mm 2 m/s 544 mmHg 39%
    12:00 +21°C° 0 mm 3 m/s 544 mmHg 37%
    13:00 +22°C° 0 mm 4 m/s 543 mmHg 34%
    14:00 +23°C° 0 mm 4 m/s 543 mmHg 32%
    15:00 +23°C° 0 mm 5 m/s 543 mmHg 34%
    16:00 +22°C° 0 mm 5 m/s 542 mmHg 36%
    17:00 +22°C° 0 mm 6 m/s 542 mmHg 38%
    18:00 +20°C° 0.3 mm 5 m/s 542 mmHg 44%
    19:00 +19°C° 0.3 mm 4 m/s 542 mmHg 51%
    20:00 +18°C° 0.3 mm 3 m/s 542 mmHg 57%
    21:00 +17°C° 0.4 mm 3 m/s 542 mmHg 60%
    22:00 +17°C° 0.4 mm 2 m/s 542 mmHg 63%
    23:00 +16°C° 0.4 mm 2 m/s 542 mmHg 67%

    Depois de amanhã, 22 Setembro, Sábado

    Tempo Temperatura Precipitação Vento Pressão Humidade
    00:00 +16°C° 0.1 mm 2 m/s 541 mmHg 69%
    01:00 +15°C° 0.1 mm 1 m/s 541 mmHg 72%
    02:00 +15°C° 0.1 mm 1 m/s 541 mmHg 74%
    03:00 +15°C° 0 mm 1 m/s 540 mmHg 77%
    04:00 +14°C° 0 mm 1 m/s 540 mmHg 79%
    05:00 +14°C° 0 mm 1 m/s 539 mmHg 82%
    06:00 +14°C° 0 mm 1 m/s 540 mmHg 77%
    07:00 +15°C° 0 mm 1 m/s 541 mmHg 72%
    08:00 +16°C° 0 mm 2 m/s 541 mmHg 66%
    09:00 +18°C° 0 mm 2 m/s 542 mmHg 57%
    10:00 +19°C° 0 mm 3 m/s 543 mmHg 48%
    11:00 +21°C° 0 mm 3 m/s 543 mmHg 38%
    12:00 +22°C° 0 mm 3 m/s 543 mmHg 35%
    13:00 +23°C° 0 mm 4 m/s 543 mmHg 31%
    14:00 +25°C° 0 mm 4 m/s 542 mmHg 28%
    15:00 +25°C° 0.2 mm 5 m/s 542 mmHg 30%
    16:00 +23°C° 0.2 mm 6 m/s 541 mmHg 32%
    17:00 +23°C° 0.2 mm 7 m/s 541 mmHg 34%
    18:00 +21°C° 1.7 mm 6 m/s 541 mmHg 40%
    19:00 +20°C° 1.7 mm 4 m/s 541 mmHg 46%
    20:00 +18°C° 1.7 mm 2 m/s 541 mmHg 52%
    21:00 +18°C° 0.1 mm 2 m/s 541 mmHg 53%
    22:00 +18°C° 0.1 mm 2 m/s 541 mmHg 54%
    23:00 +18°C° 0.1 mm 2 m/s 541 mmHg 54%

    23 Setembro, Domingo

    Tempo Temperatura Precipitação Vento Pressão Humidade
    00:00 +17°C° 0.1 mm 2 m/s 541 mmHg 57%
    01:00 +17°C° 0.1 mm 2 m/s 540 mmHg 59%
    02:00 +16°C° 0.1 mm 2 m/s 540 mmHg 62%
    03:00 +16°C° 0 mm 1 m/s 539 mmHg 63%
    04:00 +16°C° 0 mm 1 m/s 539 mmHg 64%
    05:00 +15°C° 0 mm 1 m/s 539 mmHg 66%
    06:00 +16°C° 0 mm 1 m/s 540 mmHg 62%
    07:00 +16°C° 0 mm 1 m/s 540 mmHg 59%
    08:00 +17°C° 0 mm 2 m/s 541 mmHg 55%
    09:00 +19°C° 0 mm 2 m/s 542 mmHg 47%
    10:00 +20°C° 0 mm 2 m/s 542 mmHg 39%
    11:00 +22°C° 0 mm 3 m/s 543 mmHg 31%
    12:00 +24°C° 0 mm 3 m/s 543 mmHg 28%
    13:00 +25°C° 0 mm 4 m/s 543 mmHg 25%
    14:00 +26°C° 0 mm 5 m/s 542 mmHg 22%
    15:00 +24°C° 0 mm 6 m/s 542 mmHg 25%
    16:00 +23°C° 0 mm 7 m/s 542 mmHg 28%
    17:00 +23°C° 0 mm 9 m/s 541 mmHg 31%
    18:00 +21°C° 0.9 mm 7 m/s 541 mmHg 37%
    19:00 +20°C° 0.9 mm 5 m/s 541 mmHg 43%
    20:00 +18°C° 0.9 mm 3 m/s 541 mmHg 49%
    21:00 +18°C° 0.4 mm 2 m/s 542 mmHg 51%
    22:00 +18°C° 0.4 mm 2 m/s 542 mmHg 53%
    23:00 +18°C° 0.4 mm 1 m/s 542 mmHg 55%

    24 Setembro, Segunda-feira

    Tempo Temperatura Precipitação Vento Pressão Humidade
    00:00 +18°C° 0.7 mm 1 m/s 541 mmHg 57%
    01:00 +16°C° 0.7 mm 1 m/s 541 mmHg 60%
    02:00 +16°C° 0.7 mm 1 m/s 541 mmHg 62%
    03:00 +15°C° 0.6 mm 1 m/s 541 mmHg 64%
    04:00 +15°C° 0.6 mm 1 m/s 541 mmHg 66%
    05:00 +15°C° 0.6 mm 1 m/s 540 mmHg 67%
    06:00 +15°C° 0.1 mm 1 m/s 541 mmHg 65%
    07:00 +15°C° 0.1 mm 1 m/s 542 mmHg 63%
    08:00 +16°C° 0.1 mm 1 m/s 542 mmHg 61%
    09:00 +17°C° 0.6 mm 2 m/s 543 mmHg 56%
    10:00 +18°C° 0.6 mm 2 m/s 543 mmHg 51%
    11:00 +19°C° 0.6 mm 3 m/s 543 mmHg 46%
    12:00 +20°C° 0.9 mm 4 m/s 543 mmHg 44%
    13:00 +20°C° 0.9 mm 4 m/s 543 mmHg 42%
    14:00 +21°C° 0.9 mm 5 m/s 542 mmHg 40%
    15:00 +20°C° 0.4 mm 6 m/s 542 mmHg 42%
    16:00 +20°C° 0.4 mm 6 m/s 541 mmHg 45%
    17:00 +18°C° 0.4 mm 7 m/s 541 mmHg 47%
    18:00 +17°C° 0.2 mm 6 m/s 541 mmHg 52%
    19:00 +16°C° 0.2 mm 5 m/s 541 mmHg 57%
    20:00 +15°C° 0.2 mm 4 m/s 541 mmHg 62%
    21:00 +16°C° 0.2 mm 3 m/s 541 mmHg 64%
    22:00 +15°C° 0.2 mm 2 m/s 541 mmHg 66%
    23:00 +15°C° 0.2 mm 2 m/s 541 mmHg 68%

    25 Setembro, Terça-feira

    Tempo Temperatura Precipitação Vento Pressão Humidade
    00:00 +14°C° 0.1 mm 1 m/s 541 mmHg 70%
    01:00 +14°C° 0.1 mm 1 m/s 540 mmHg 73%
    02:00 +14°C° 0.1 mm 1 m/s 540 mmHg 76%
    03:00 +13°C° 0 mm 1 m/s 539 mmHg 77%
    04:00 +13°C° 0 mm 1 m/s 539 mmHg 79%
    05:00 +13°C° 0 mm 1 m/s 539 mmHg 81%
    06:00 +13°C° 0 mm 1 m/s 539 mmHg 76%
    07:00 +14°C° 0 mm 2 m/s 540 mmHg 71%
    08:00 +15°C° 0 mm 2 m/s 541 mmHg 66%
    09:00 +17°C° 0 mm 2 m/s 541 mmHg 56%
    10:00 +18°C° 0 mm 3 m/s 542 mmHg 47%
    11:00 +20°C° 0 mm 3 m/s 543 mmHg 38%
    12:00 +21°C° 0 mm 3 m/s 542 mmHg 35%
    13:00 +22°C° 0 mm 3 m/s 542 mmHg 32%
    14:00 +23°C° 0 mm 4 m/s 542 mmHg 29%
    15:00 +22°C° 0.2 mm 4 m/s 541 mmHg 32%
    16:00 +22°C° 0.2 mm 4 m/s 541 mmHg 35%
    17:00 +21°C° 0.2 mm 5 m/s 540 mmHg 38%
    18:00 +20°C° 0.2 mm 4 m/s 540 mmHg 43%
    19:00 +19°C° 0.2 mm 3 m/s 540 mmHg 48%
    20:00 +18°C° 0.2 mm 2 m/s 540 mmHg 53%
    21:00 +17°C° 0.4 mm 2 m/s 540 mmHg 56%
    22:00 +17°C° 0.4 mm 2 m/s 540 mmHg 59%
    23:00 +16°C° 0.4 mm 2 m/s 540 mmHg 63%
    Mostrar mais